QPF
0.00 0.00 0.00 0.00 0.00 0.00 0.00 0.00 0.00 0.00 0.00 0.00 0.00 0.00 0.00 0.00 0.00 0.00 0.00 0.00 0.00 0.00 0.00 0.00 0.00 0.00 0.00 0.00 0.00 0.00 0.00 0.00 0.00 0.00 0.00 0.00 0.00 0.00 0.00 0.00 0.00 0.00 0.00
0.00 0.00 0.00 0.00 0.00 0.00 0.00 0.00 0.00 0.00 0.01 0.01 0.00 0.00 0.00 0.00 0.00 0.00 0.00 0.00 0.00 0.00 0.00 0.00 0.00 0.00 0.00 0.00 0.00 0.00 0.00 0.00 0.00 0.00 0.00 0.00 0.00 0.00 0.00 0.00 0.00 0.00 0.00
0.00 0.00 0.00 0.00 0.00 0.00 0.00 0.00 0.00 0.00 0.01 0.00 0.00 0.00 0.00 0.00 0.00 0.00 0.00 0.00 0.00 0.00 0.00 0.00 0.00 0.00 0.00 0.00 0.00 0.00 0.00 0.00 0.00 0.00 0.00 0.00 0.00 0.00 0.00 0.01 0.00 0.00 0.00
0.00 0.00 0.00 0.00 0.00 0.00 0.00 0.00 0.01 0.01 0.00 0.00 0.00 0.00 0.00 0.00 0.00 0.00 0.00 0.00 0.00 0.00 0.00 0.00 0.00 0.00 0.00 0.00 0.00 0.00 0.00 0.00 0.00 0.00 0.00 0.00 0.00 0.00 0.00 0.00 0.01 0.01 0.01
0.00 0.00 0.00 0.00 0.00 0.00 0.00 0.01 0.01 0.00 0.00 0.00 0.00 0.00 0.00 0.00 0.00 0.00 0.00 0.00 0.00 0.00 0.00 0.00 0.00 0.00 0.00 0.00 0.00 0.00 0.00 0.00 0.00 0.00 0.00 0.00 0.00 0.00 0.00 0.00 0.00 0.00 0.00
0.00 0.00 0.00 0.00 0.00 0.00 0.01 0.01 0.00 0.00 0.00 0.00 0.00 0.00 0.00 0.00 0.00 0.00 0.00 0.00 0.00 0.00 0.00 0.00 0.00 0.00 0.00 0.00 0.00 0.00 0.00 0.00 0.00 0.00 0.00 0.00 0.00 0.00 0.00 0.00 0.00 0.00 0.00
0.00 0.00 0.00 0.00 0.00 0.00 0.01 0.00 0.00 0.00 0.00 0.00 0.00 0.00 0.00 0.00 0.00 0.00 0.00 0.00 0.00 0.00 0.00 0.00 0.00 0.00 0.00 0.00 0.00 0.00 0.00 0.00 0.00 0.00 0.00 0.00 0.00 0.00 0.00 0.00 0.00 0.00 0.00
0.01 0.01 0.00 0.00 0.00 0.01 0.01 0.00 0.00 0.00 0.00 0.00 0.00 0.00 0.00 0.00 0.00 0.00 0.00 0.00 0.00 0.00 0.00 0.00 0.00 0.00 0.00 0.00 0.00 0.00 0.00 0.00 0.00 0.00 0.00 0.00 0.00 0.00 0.00 0.00 0.01 0.01 0.02
0.01 0.03 0.01 0.01 0.01 0.01 0.00 0.00 0.00 0.00 0.00 0.00 0.00 0.00 0.00 0.00 0.00 0.00 0.00 0.00 0.00 0.00 0.00 0.00 0.00 0.00 0.00 0.00 0.00 0.00 0.00 0.00 0.00 0.00 0.00 0.00 0.00 0.00 0.01 0.03 0.02 0.01 0.01
0.05 0.11 0.04 0.05 0.04 0.01 0.00 0.00 0.00 0.00 0.00 0.00 0.00 0.00 0.00 0.00 0.00 0.00 0.00 0.00 0.00 0.00 0.00 0.00 0.00 0.00 0.00 0.00 0.00 0.00 0.00 0.00 0.00 0.00 0.00 0.00 0.00 0.02 0.03 0.02 0.00 0.00 0.00
0.07 0.09 0.06 0.06 0.04 0.01 0.00 0.00 0.00 0.00 0.00 0.00 0.00 0.00 0.00 0.00 0.00 0.00 0.00 0.00 0.00 0.00 0.00 0.00 0.00 0.00 0.00 0.00 0.00 0.00 0.00 0.00 0.00 0.00 0.00 0.00 0.02 0.04 0.01 0.00 0.00 0.00 0.00
0.06 0.05 0.03 0.03 0.01 0.00 0.00 0.00 0.00 0.00 0.00 0.00 0.00 0.00 0.00 0.00 0.00 0.00 0.00 0.00 0.00 0.00 0.00 0.00 0.00 0.00 0.00 0.00 0.00 0.00 0.00 0.00 0.00 0.00 0.00 0.02 0.05 0.02 0.00 0.00 0.00 0.00 0.00
0.03 0.02 0.02 0.02 0.00 0.00 0.00 0.00 0.00 0.00 0.00 0.00 0.00 0.00 0.00 0.00 0.00 0.00 0.00 0.00 0.00 0.00 0.00 0.00 0.00 0.00 0.00 0.00 0.00 0.00 0.00 0.00 0.00 0.01 0.02 0.05 0.02 0.00 0.00 0.00 0.00 0.00 0.00
0.02 0.01 0.03 0.03 0.01 0.00 0.00 0.00 0.00 0.00 0.00 0.00 0.00 0.00 0.00 0.00 0.00 0.00 0.00 0.00 0.00 0.00 0.00 0.00 0.00 0.00 0.00 0.00 0.00 0.00 0.00 0.00 0.00 0.00 0.01 0.02 0.02 0.01 0.01 0.01 0.00 0.00 0.00
0.04 0.01 0.01 0.01 0.01 0.00 0.00 0.00 0.00 0.00 0.00 0.00 0.00 0.00 0.00 0.00 0.00 0.00 0.00 0.00 0.00 0.00 0.00 0.00 0.00 0.00 0.00 0.00 0.00 0.00 0.00 0.00 0.00 0.00 0.00 0.00 0.00 0.01 0.00 0.00 0.00 0.00 0.00
0.08 0.03 0.01 0.01 0.00 0.00 0.00 0.00 0.00 0.00 0.00 0.00 0.00 0.00 0.00 0.00 0.00 0.00 0.00 0.00 0.00 0.00 0.00 0.00 0.00 0.00 0.00 0.00 0.00 0.00 0.00 0.00 0.00 0.00 0.00 0.00 0.00 0.00 0.00 0.00 0.00 0.00 0.00
0.05 0.07 0.04 0.02 0.00 0.00 0.00 0.00 0.00 0.00 0.00 0.00 0.00 0.00 0.00 0.00 0.00 0.00 0.00 0.00 0.00 0.00 0.00 0.00 0.00 0.00 0.00 0.00 0.00 0.00 0.00 0.00 0.00 0.00 0.00 0.00 0.00 0.00 0.00 0.00 0.00 0.00 0.00
0.03 0.05 0.05 0.03 0.01 0.01 0.00 0.00 0.00 0.00 0.00 0.00 0.00 0.00 0.00 0.00 0.00 0.00 0.00 0.00 0.00 0.00 0.00 0.00 0.00 0.00 0.00 0.00 0.00 0.00 0.00 0.00 0.00 0.00 0.00 0.00 0.00 0.00 0.00 0.00 0.00 0.00 0.00
0.01 0.03 0.06 0.06 0.02 0.02 0.00 0.00 0.00 0.00 0.00 0.00 0.00 0.00 0.00 0.00 0.00 0.00 0.00 0.00 0.00 0.00 0.00 0.00 0.00 0.00 0.00 0.00 0.00 0.00 0.00 0.00 0.00 0.00 0.00 0.00 0.00 0.00 0.00 0.00 0.00 0.00 0.00
0.02 0.01 0.03 0.09 0.08 0.04 0.00 0.00 0.00 0.00 0.00 0.00 0.00 0.00 0.00 0.00 0.00 0.00 0.00 0.00 0.00 0.00 0.00 0.00 0.00 0.00 0.00 0.00 0.00 0.00 0.00 0.00 0.00 0.00 0.00 0.00 0.00 0.00 0.00 0.00 0.00 0.00 0.00
0.12 0.06 0.02 0.06 0.08 0.04 0.00 0.00 0.00 0.00 0.00 0.00 0.00 0.00 0.00 0.00 0.00 0.00 0.00 0.00 0.00 0.00 0.00 0.00 0.00 0.00 0.00 0.00 0.00 0.00 0.00 0.00 0.00 0.00 0.00 0.00 0.00 0.00 0.00 0.00 0.00 0.00 0.00
0.08 0.16 0.06 0.04 0.06 0.03 0.00 0.00 0.00 0.00 0.00 0.00 0.00 0.00 0.00 0.00 0.00 0.00 0.00 0.00 0.00 0.00 0.00 0.00 0.00 0.00 0.00 0.00 0.00 0.00 0.00 0.00 0.00 0.00 0.00 0.00 0.00 0.00 0.00 0.00 0.00 0.00 0.00
0.02 0.09 0.15 0.05 0.04 0.05 0.01 0.00 0.00 0.00 0.00 0.00 0.00 0.00 0.00 0.00 0.00 0.00 0.00 0.00 0.00 0.00 0.00 0.00 0.00 0.00 0.00 0.00 0.00 0.00 0.00 0.00 0.00 0.00 0.00 0.00 0.00 0.00 0.00 0.00 0.00 0.00 0.00
0.02 0.08 0.12 0.07 0.08 0.08 0.03 0.00 0.00 0.00 0.00 0.00 0.00 0.00 0.00 0.00 0.00 0.00 0.00 0.00 0.00 0.00 0.00 0.00 0.00 0.00 0.00 0.00 0.00 0.00 0.00 0.00 0.00 0.00 0.00 0.00 0.00 0.00 0.00 0.00 0.00 0.00 0.00
0.02 0.06 0.01 0.02 0.03 0.06 0.06 0.02 0.00 0.00 0.00 0.00 0.00 0.00 0.00 0.00 0.00 0.00 0.00 0.00 0.00 0.00 0.00 0.00 0.00 0.00 0.00 0.00 0.00 0.00 0.00 0.00 0.00 0.00 0.00 0.00 0.00 0.00 0.00 0.00 0.00 0.00 0.00
0.00 0.01 0.00 0.00 0.00 0.01 0.03 0.03 0.01 0.00 0.00 0.00 0.00 0.00 0.00 0.00 0.00 0.00 0.00 0.00 0.00 0.00 0.00 0.00 0.00 0.00 0.00 0.00 0.00 0.00 0.00 0.00 0.00 0.00 0.00 0.00 0.00 0.00 0.00 0.00 0.00 0.00 0.00
MSLP
1009.66 1010.37 1011.66 1012.23 1012.59 1013.02 1013.43 1013.79 1014.08 1014.34 1014.71 1014.99 1015.26 1015.54 1015.87 1016.19 1016.46 1016.59 1016.68 1016.78 1016.93 1017.01 1017.07 1017.18 1017.24 1017.28 1017.41 1017.54 1017.62 1017.48 1017.34 1017.49 1017.51 1017.48 1017.30 1017.29 1017.41 1017.48 1017.54 1017.48 1017.14 1016.86 1017.18
1009.12 1010.19 1011.42 1012.14 1012.64 1013.07 1013.53 1013.83 1014.15 1014.46 1014.69 1015.00 1015.37 1015.60 1016.08 1016.43 1016.64 1016.85 1016.97 1017.12 1017.25 1017.36 1017.43 1017.46 1017.52 1017.62 1017.72 1017.88 1017.73 1017.40 1017.53 1017.77 1017.77 1017.66 1017.68 1017.73 1017.86 1017.89 1017.82 1017.62 1017.39 1017.33 1017.34
1009.04 1009.94 1011.32 1011.94 1012.62 1013.14 1013.51 1013.91 1014.27 1014.48 1014.80 1015.15 1015.46 1015.90 1016.21 1016.52 1016.78 1016.96 1017.19 1017.35 1017.52 1017.66 1017.75 1017.84 1017.94 1018.03 1018.08 1017.90 1017.71 1017.86 1018.03 1018.03 1018.10 1018.11 1017.91 1017.42 1017.84 1018.02 1017.91 1017.65 1017.67 1017.61 1017.62
1009.00 1009.90 1010.83 1011.93 1012.42 1013.07 1013.53 1013.90 1014.32 1014.58 1014.91 1015.30 1015.71 1016.08 1016.38 1016.66 1016.89 1017.11 1017.35 1017.53 1017.70 1017.88 1017.98 1017.98 1018.12 1018.07 1018.00 1018.07 1018.17 1018.27 1018.36 1018.53 1018.62 1018.34 1017.72 1017.54 1017.64 1018.18 1018.04 1017.96 1017.97 1018.00 1017.94
1009.02 1009.86 1010.61 1011.68 1012.27 1012.81 1013.42 1013.92 1014.30 1014.73 1015.10 1015.50 1015.86 1016.16 1016.46 1016.71 1016.97 1017.25 1017.55 1017.82 1017.95 1018.09 1018.21 1018.26 1018.31 1018.39 1018.42 1018.48 1018.57 1018.63 1018.83 1018.97 1018.79 1018.20 1018.10 1017.90 1017.72 1018.37 1018.34 1018.25 1018.23 1018.26 1018.17
1009.05 1009.77 1010.88 1011.63 1012.10 1012.69 1013.21 1013.85 1014.30 1014.84 1015.29 1015.75 1016.15 1016.39 1016.63 1016.87 1017.06 1017.41 1017.75 1018.02 1018.15 1018.20 1018.33 1018.40 1018.54 1018.57 1018.60 1018.70 1018.88 1018.94 1019.12 1019.05 1018.63 1018.41 1018.37 1018.46 1018.32 1018.74 1018.74 1018.66 1018.68 1018.60 1018.48
1009.36 1009.75 1010.98 1011.74 1012.05 1012.56 1013.20 1013.80 1014.38 1014.95 1015.44 1015.88 1016.31 1016.64 1016.90 1017.21 1017.46 1017.72 1017.96 1018.17 1018.25 1018.38 1018.41 1018.52 1018.65 1018.74 1018.92 1019.05 1019.27 1019.39 1019.46 1019.18 1018.42 1018.43 1018.51 1018.57 1018.87 1019.06 1019.06 1019.07 1018.96 1018.82 1018.71
1009.48 1009.76 1010.94 1011.78 1012.12 1012.65 1013.18 1013.86 1014.52 1015.05 1015.59 1016.04 1016.45 1016.79 1017.12 1017.47 1017.74 1017.92 1018.16 1018.33 1018.47 1018.58 1018.71 1018.83 1018.93 1019.12 1019.38 1019.49 1019.58 1019.79 1019.71 1019.26 1018.72 1018.78 1018.82 1019.09 1019.34 1019.37 1019.36 1019.34 1019.22 1019.09 1019.09
1009.71 1010.03 1010.86 1011.54 1012.18 1012.79 1013.31 1013.99 1014.61 1015.15 1015.66 1016.15 1016.57 1016.91 1017.28 1017.67 1017.92 1018.08 1018.31 1018.53 1018.65 1018.77 1018.99 1019.13 1019.25 1019.46 1019.71 1019.93 1020.00 1020.10 1020.03 1019.54 1018.95 1019.18 1019.06 1019.34 1019.72 1019.66 1019.75 1019.77 1019.74 1019.72 1019.71
1009.87 1010.19 1010.67 1011.31 1012.15 1012.87 1013.49 1014.27 1014.75 1015.32 1015.80 1016.28 1016.70 1017.14 1017.47 1017.84 1018.15 1018.26 1018.46 1018.78 1018.93 1019.00 1019.15 1019.36 1019.56 1019.80 1020.00 1020.22 1020.29 1020.38 1020.13 1019.57 1019.21 1019.15 1019.47 1019.90 1019.94 1020.11 1020.07 1020.26 1020.38 1020.34 1020.32
1010.19 1010.29 1010.59 1011.48 1012.33 1012.86 1013.57 1014.53 1015.07 1015.57 1016.12 1016.58 1017.08 1017.45 1017.64 1017.58 1018.02 1018.30 1018.59 1019.00 1019.18 1019.28 1019.37 1019.55 1019.87 1020.15 1020.32 1020.54 1020.57 1020.56 1020.13 1020.19 1019.59 1019.30 1019.79 1020.36 1020.44 1020.39 1020.66 1020.81 1020.93 1020.89 1020.89
1010.08 1010.56 1010.86 1011.73 1012.25 1012.85 1013.59 1014.61 1015.06 1015.67 1016.17 1016.41 1016.88 1017.24 1017.10 1017.47 1017.92 1018.27 1018.91 1019.14 1019.34 1019.55 1019.65 1019.89 1020.30 1020.36 1020.02 1020.15 1020.57 1020.42 1020.58 1020.54 1019.86 1019.96 1020.37 1020.78 1020.66 1020.90 1021.20 1021.35 1021.42 1021.41 1021.41
1010.32 1010.87 1011.48 1011.73 1012.14 1012.90 1013.51 1014.30 1014.87 1015.42 1015.96 1016.46 1016.80 1017.02 1017.30 1017.71 1018.31 1018.39 1018.87 1019.12 1019.39 1019.65 1019.74 1020.07 1020.36 1020.02 1020.13 1020.19 1020.39 1020.33 1020.68 1020.84 1020.57 1020.73 1020.90 1021.04 1021.08 1021.25 1021.57 1021.74 1021.87 1021.87 1021.81
1010.62 1011.31 1011.59 1011.83 1012.30 1012.64 1013.44 1014.06 1014.70 1015.28 1015.92 1016.44 1016.89 1017.14 1017.33 1017.59 1017.92 1018.12 1018.45 1018.95 1019.34 1019.46 1019.69 1019.79 1020.02 1020.28 1020.38 1020.44 1020.57 1020.55 1020.85 1021.56 1021.79 1021.56 1021.74 1021.50 1021.41 1021.61 1021.82 1022.03 1022.13 1022.17 1022.13
1010.86 1011.28 1011.39 1011.83 1012.13 1012.74 1013.40 1013.85 1014.62 1015.10 1015.79 1016.25 1016.83 1017.11 1017.13 1017.46 1017.63 1018.01 1018.35 1018.76 1019.13 1019.41 1019.64 1019.89 1020.15 1020.42 1020.60 1020.78 1020.93 1021.12 1021.23 1021.95 1022.11 1022.17 1022.18 1022.19 1022.05 1022.13 1022.24 1022.31 1022.38 1022.41 1022.26
1012.02 1011.55 1011.83 1011.82 1012.18 1012.74 1013.34 1013.86 1014.33 1015.02 1015.54 1016.22 1016.59 1016.97 1017.09 1017.27 1017.58 1017.94 1018.37 1018.79 1019.21 1019.38 1019.62 1019.89 1020.16 1020.49 1020.79 1021.01 1021.29 1021.54 1021.71 1021.91 1022.13 1022.20 1022.43 1022.70 1022.58 1022.68 1022.76 1022.86 1022.95 1022.79 1022.76
1010.39 1011.21 1011.32 1012.14 1012.45 1012.76 1013.37 1013.88 1014.33 1014.93 1015.58 1016.00 1016.33 1016.86 1017.09 1017.38 1017.74 1018.03 1018.24 1018.79 1019.24 1019.50 1019.72 1019.97 1020.35 1020.67 1020.93 1021.24 1021.51 1021.84 1021.97 1022.19 1022.36 1022.47 1022.44 1022.64 1023.10 1023.44 1023.37 1023.53 1023.59 1023.43 1023.25
1011.50 1011.22 1010.69 1011.68 1012.41 1012.91 1013.33 1013.90 1014.44 1014.97 1015.36 1015.85 1016.19 1016.73 1017.01 1017.32 1017.77 1018.10 1018.42 1018.68 1019.28 1019.65 1019.89 1020.01 1020.34 1020.66 1021.06 1021.36 1021.68 1022.04 1022.26 1022.51 1022.67 1022.86 1023.03 1023.15 1023.24 1023.41 1024.03 1024.22 1024.17 1024.03 1023.78
1010.69 1011.40 1010.67 1011.91 1012.30 1012.89 1013.27 1013.81 1014.29 1014.85 1015.35 1015.77 1016.14 1016.54 1016.84 1017.18 1017.66 1017.80 1018.18 1018.66 1019.30 1019.64 1019.83 1020.06 1020.35 1020.65 1021.09 1021.52 1021.94 1022.21 1022.40 1022.66 1022.95 1023.13 1023.33 1023.56 1023.86 1023.69 1023.94 1024.75 1024.75 1024.66 1024.49
1009.56 1010.45 1011.14 1012.23 1012.47 1012.83 1013.37 1013.90 1014.32 1014.74 1015.25 1015.68 1016.01 1016.27 1016.70 1017.01 1017.51 1017.65 1018.21 1018.68 1019.16 1019.59 1019.74 1020.20 1020.44 1020.75 1021.10 1021.59 1022.11 1022.45 1022.74 1023.01 1023.16 1023.26 1023.55 1023.75 1023.95 1024.03 1024.08 1024.24 1024.38 1024.91 1024.96
1009.73 1009.26 1010.74 1011.55 1012.07 1012.82 1013.16 1013.41 1013.90 1014.15 1014.88 1015.46 1015.78 1016.14 1016.47 1016.77 1017.26 1017.45 1018.03 1018.51 1018.97 1019.40 1019.54 1020.03 1020.55 1020.84 1021.19 1021.69 1022.07 1022.63 1023.08 1023.33 1023.47 1023.60 1023.70 1023.76 1024.05 1024.17 1024.24 1024.30 1024.43 1024.58 1025.10
1007.94 1008.93 1009.80 1010.89 1011.72 1012.30 1012.15 1012.88 1013.31 1013.85 1014.66 1014.99 1015.62 1015.98 1016.19 1016.50 1016.96 1017.27 1017.77 1018.18 1018.60 1019.11 1019.41 1019.90 1020.35 1020.62 1021.15 1021.57 1021.45 1021.90 1022.54 1023.37 1023.49 1023.69 1023.77 1023.84 1024.02 1024.22 1024.44 1024.60 1024.74 1024.86 1024.96
1007.72 1008.41 1008.98 1009.79 1011.11 1010.97 1011.88 1012.63 1013.27 1014.02 1014.57 1014.93 1015.20 1015.52 1015.90 1016.25 1016.74 1016.97 1017.49 1017.87 1018.24 1018.86 1019.18 1019.71 1020.10 1020.32 1020.72 1021.36 1021.42 1021.18 1021.70 1021.57 1022.76 1023.57 1023.79 1023.89 1024.07 1024.13 1024.40 1024.76 1025.05 1025.22 1025.20
1007.34 1008.26 1009.06 1009.60 1010.02 1010.14 1011.71 1012.06 1012.50 1012.72 1013.17 1013.33 1013.94 1014.74 1015.38 1015.74 1016.34 1016.77 1017.27 1017.68 1018.16 1018.62 1018.96 1019.36 1019.72 1019.92 1020.10 1020.74 1021.56 1021.80 1021.76 1021.44 1021.69 1022.82 1023.72 1024.01 1024.16 1024.18 1024.45 1024.73 1024.95 1025.19 1025.35
1006.95 1007.52 1008.30 1009.33 1010.38 1011.00 1011.23 1011.33 1011.74 1012.07 1012.41 1012.82 1013.70 1014.10 1014.61 1015.30 1015.84 1016.34 1016.91 1017.29 1017.86 1018.33 1018.63 1018.94 1019.33 1019.65 1019.89 1020.03 1020.56 1021.11 1021.53 1021.69 1021.73 1021.63 1022.47 1023.51 1024.07 1024.30 1024.47 1024.66 1024.87 1025.21 1025.46
1006.56 1007.27 1007.81 1008.70 1009.20 1009.92 1010.62 1010.89 1011.00 1011.07 1011.56 1012.56 1013.01 1013.33 1013.94 1014.49 1015.41 1015.78 1016.34 1016.74 1017.24 1017.72 1018.12 1018.54 1018.71 1019.24 1019.58 1019.86 1020.16 1020.61 1020.62 1020.73 1020.89 1021.27 1021.69 1022.62 1023.16 1024.18 1024.43 1024.60 1024.87 1025.17 1025.42
Thickness
5767 5765 5756 5753 5751 5748 5745 5741 5740 5740 5739 5737 5736 5735 5734 5732 5731 5731 5731 5732 5731 5731 5731 5731 5732 5734 5734 5732 5731 5733 5735 5732 5730 5729 5730 5728 5724 5720 5717 5715 5717 5718 5715
5770 5763 5755 5749 5747 5745 5742 5740 5738 5738 5737 5736 5734 5733 5731 5729 5729 5728 5728 5727 5727 5728 5729 5730 5731 5730 5729 5727 5730 5734 5733 5729 5728 5729 5726 5723 5718 5715 5714 5714 5716 5714 5711
5766 5761 5751 5748 5743 5741 5739 5737 5735 5735 5735 5734 5732 5730 5729 5728 5727 5726 5725 5725 5724 5725 5725 5726 5726 5725 5725 5728 5731 5728 5726 5726 5725 5723 5721 5721 5716 5713 5713 5714 5711 5708 5706
5761 5756 5751 5744 5741 5737 5735 5734 5732 5732 5731 5730 5729 5727 5726 5725 5725 5724 5723 5723 5722 5722 5723 5724 5724 5725 5726 5726 5725 5724 5723 5721 5718 5718 5721 5720 5717 5712 5711 5709 5706 5703 5702
5754 5749 5748 5741 5739 5736 5732 5730 5729 5728 5728 5727 5726 5725 5725 5724 5723 5722 5720 5719 5719 5719 5720 5720 5721 5721 5721 5721 5721 5720 5718 5716 5716 5718 5717 5716 5716 5710 5708 5706 5704 5701 5700
5747 5743 5739 5736 5735 5732 5731 5727 5726 5724 5723 5722 5721 5722 5722 5721 5721 5720 5718 5716 5716 5717 5718 5718 5718 5719 5720 5720 5718 5717 5715 5714 5715 5715 5714 5711 5710 5707 5705 5702 5699 5697 5695
5735 5736 5730 5728 5730 5729 5726 5724 5721 5719 5718 5718 5716 5716 5717 5717 5716 5715 5714 5714 5714 5715 5716 5716 5717 5717 5716 5715 5713 5712 5711 5712 5715 5714 5712 5709 5706 5703 5700 5697 5695 5693 5690
5725 5727 5722 5721 5723 5723 5721 5718 5715 5714 5714 5713 5712 5712 5712 5712 5711 5711 5711 5711 5711 5711 5711 5712 5713 5712 5710 5710 5709 5708 5708 5711 5712 5711 5709 5705 5701 5699 5696 5693 5691 5689 5685
5715 5718 5716 5715 5716 5716 5715 5712 5710 5709 5709 5709 5708 5708 5708 5708 5707 5707 5707 5707 5707 5707 5707 5707 5708 5707 5706 5704 5704 5704 5704 5707 5709 5706 5705 5701 5697 5695 5692 5689 5685 5682 5678
5705 5709 5710 5709 5709 5708 5708 5705 5704 5703 5703 5703 5704 5704 5704 5703 5703 5703 5703 5702 5702 5703 5703 5703 5703 5703 5702 5700 5700 5700 5700 5704 5704 5704 5700 5695 5693 5690 5687 5683 5679 5675 5671
5694 5701 5704 5702 5700 5701 5700 5697 5697 5697 5697 5697 5697 5698 5699 5701 5700 5700 5699 5698 5698 5699 5699 5700 5699 5698 5698 5696 5696 5696 5698 5696 5699 5700 5695 5690 5688 5686 5682 5677 5673 5669 5664
5687 5691 5696 5693 5694 5694 5693 5690 5691 5690 5691 5693 5693 5694 5698 5699 5697 5697 5694 5694 5694 5695 5695 5695 5693 5694 5696 5694 5692 5693 5692 5691 5695 5692 5688 5684 5684 5680 5676 5671 5667 5663 5659
5682 5683 5684 5687 5688 5687 5687 5686 5687 5687 5687 5688 5689 5691 5692 5693 5691 5693 5691 5691 5691 5691 5691 5691 5690 5692 5692 5691 5690 5690 5687 5686 5686 5684 5681 5679 5678 5676 5671 5667 5662 5658 5655
5672 5673 5676 5680 5681 5683 5682 5682 5682 5682 5682 5683 5684 5686 5688 5689 5690 5691 5691 5689 5689 5690 5689 5690 5689 5687 5687 5686 5685 5684 5682 5677 5675 5675 5673 5673 5673 5670 5667 5663 5659 5654 5651
5659 5667 5673 5675 5676 5676 5676 5679 5678 5679 5678 5679 5680 5682 5686 5687 5688 5688 5688 5688 5687 5687 5687 5686 5684 5682 5681 5679 5678 5676 5675 5670 5669 5668 5667 5666 5666 5664 5662 5659 5655 5651 5648
5630 5655 5660 5666 5668 5668 5671 5672 5674 5673 5675 5675 5677 5678 5682 5684 5685 5686 5685 5685 5683 5684 5684 5682 5680 5678 5675 5673 5670 5668 5667 5666 5664 5664 5661 5660 5661 5658 5656 5653 5649 5646 5643
5637 5642 5650 5654 5659 5662 5663 5664 5667 5668 5668 5671 5674 5674 5678 5680 5680 5681 5682 5680 5679 5679 5679 5677 5675 5672 5671 5668 5665 5662 5662 5660 5659 5658 5657 5656 5653 5651 5649 5645 5642 5639 5637
5618 5636 5652 5651 5651 5655 5657 5659 5659 5661 5664 5666 5669 5669 5674 5675 5675 5676 5676 5677 5674 5673 5673 5673 5671 5670 5667 5664 5661 5658 5656 5654 5652 5651 5650 5649 5648 5646 5641 5638 5635 5633 5632
5623 5624 5632 5638 5643 5648 5651 5652 5655 5655 5657 5660 5664 5665 5669 5672 5671 5673 5673 5673 5670 5669 5668 5668 5667 5666 5663 5660 5656 5654 5652 5650 5647 5646 5645 5643 5640 5641 5638 5632 5630 5627 5625
5623 5625 5625 5624 5633 5638 5641 5644 5647 5651 5652 5654 5658 5661 5665 5667 5667 5670 5668 5668 5666 5664 5665 5663 5662 5662 5660 5656 5652 5649 5647 5645 5643 5642 5640 5638 5636 5635 5634 5632 5628 5623 5620
5617 5630 5626 5624 5628 5630 5635 5641 5644 5649 5649 5651 5654 5656 5659 5662 5663 5666 5664 5664 5662 5661 5663 5661 5658 5656 5654 5652 5648 5644 5641 5640 5639 5637 5635 5634 5631 5630 5629 5628 5625 5622 5616
5627 5626 5628 5625 5627 5632 5640 5640 5642 5644 5643 5647 5647 5650 5653 5657 5659 5661 5660 5661 5660 5658 5658 5657 5655 5653 5650 5648 5649 5646 5640 5635 5635 5633 5632 5630 5628 5625 5623 5621 5619 5617 5614
5625 5627 5630 5628 5626 5620 5634 5634 5636 5636 5637 5639 5643 5647 5651 5654 5654 5656 5656 5657 5657 5654 5654 5653 5651 5651 5647 5645 5646 5648 5641 5645 5636 5630 5628 5626 5624 5622 5619 5615 5612 5609 5607
5626 5624 5622 5620 5623 5629 5624 5632 5635 5640 5643 5649 5648 5647 5647 5649 5648 5650 5651 5652 5651 5650 5650 5650 5649 5649 5649 5643 5638 5637 5639 5643 5640 5629 5623 5621 5619 5618 5614 5610 5608 5605 5602
5620 5622 5624 5620 5611 5615 5622 5629 5633 5637 5641 5643 5641 5643 5644 5644 5645 5647 5648 5649 5646 5645 5645 5647 5646 5645 5645 5645 5641 5638 5635 5634 5634 5636 5627 5619 5614 5611 5609 5605 5603 5599 5596
5616 5616 5618 5618 5620 5619 5620 5625 5631 5638 5639 5635 5638 5642 5643 5643 5642 5645 5644 5646 5644 5643 5642 5642 5645 5642 5641 5640 5638 5635 5636 5636 5635 5632 5628 5621 5617 5606 5604 5601 5598 5594 5591